[[{"header":{"parameterUnit":"m.s-1","parameterCategory":1,"la1":30.2991,"la2":30.254,"lo1":-89.0895,"lo2":-89.0444,"dy":0.0017,"dx":0.0017,"nx":28,"ny":28,"refTime":"2024-04-16T03:00:00:Z","depth":0,"parameterNumber":2,"parameterNumberName":"U-component_of_WINDS"},"data":[0,0,0,0,0,0,0,0,0,0,0,0,0,0,0,0,0,0,0,0,0,0,0,0,0,0,0,0,0,0,0,0,0,0,0,0,0,0,0,0,0,0,0,0,0,0,0,0,0,0,0,0,0,0,0,0,0,0,-3.5197,-3.5197,0,-3.5172,-3.5172,-3.5171,-3.5109,-3.5108,-3.5107,-3.5106,-3.5081,-3.5082,-3.5082,0,0,0,0,0,0,0,0,0,0,0,0,0,-3.5194,-3.5194,-3.5197,-3.5197,-3.5196,-3.5172,-3.5172,-3.5171,-3.511,-3.5108,-3.5107,-3.5105,-3.5081,-3.5082,-3.5082,0,0,0,0,0,0,0,0,0,0,0,0,0,-3.5185,-3.5194,-3.5197,-3.5163,-3.5159,-3.5172,-3.5172,-3.5171,-3.511,-3.5108,-3.5106,-3.5104,-3.5081,-3.5082,-3.5082,-3.5127,0,0,-3.5085,-3.5085,0,0,0,0,0,0,0,0,-3.5185,-3.5185,-3.5168,-3.5165,-3.5161,-3.5142,-3.5161,-3.5156,-3.5111,-3.5129,-3.5106,-3.5103,-3.5103,-3.5102,-3.5101,-3.5126,-3.5125,-3.5085,-3.5085,-3.5086,-3.5086,0,0,0,0,0,0,0,-3.5186,-3.5186,-3.5187,-3.5168,-3.5164,-3.5149,-3.5146,-3.516,-3.5127,-3.5127,-3.5123,-3.512,-3.5101,-3.5101,-3.51,-3.5124,-3.5085,-3.5086,-3.5086,-3.5087,-3.5184,-3.5186,0,0,0,0,0,0,-3.5191,-3.5186,-3.5188,-3.5186,-3.5169,-3.5151,-3.5147,-3.515,-3.5127,-3.5121,-3.5122,-3.5118,-3.51,-3.51,-3.5099,-3.5149,-3.5086,-3.5087,-3.5087,-3.5182,-3.5184,-3.5186,0,0,0,0,0,0,-3.5191,-3.5192,-3.5189,-3.5185,-3.5184,-3.5153,-3.5157,-3.5151,-3.515,-3.5123,-3.5117,-3.5128,-3.5099,-3.5098,-3.512,-3.5147,-3.5087,-3.5088,-3.5179,-3.5182,-3.5185,-3.5249,0,0,0,0,0,0,-3.5192,-3.5192,-3.5208,-3.5186,-3.5184,-3.521,-3.5159,-3.5152,-3.5152,-3.5146,-3.5127,-3.5122,-3.5097,-3.5119,-3.5121,-3.5147,-3.5088,-3.5177,-3.5181,-3.5184,-3.5244,-3.5254,-3.5262,0,0,0,0,0,-3.5192,-3.5227,-3.5209,-3.521,-3.5203,-3.5211,-3.521,-3.5181,-3.5154,-3.517,-3.5153,-3.5123,-3.5145,-3.5122,-3.5124,-3.515,-3.5175,-3.518,-3.5184,-3.524,-3.5252,-3.5262,0,0,0,0,0,0,-3.5253,-3.5224,-3.5203,-3.5233,-3.5225,-3.5201,-3.522,-3.5194,-3.5194,-3.5188,-3.5152,-3.5148,-3.5175,-3.5166,-3.5141,-3.5193,-3.5155,-3.516,-3.5197,-3.5208,-3.5217,-3.5218,-3.5089,0,0,0,0,0,-3.5271,-3.5279,-3.5253,-3.5282,-3.5279,-3.5251,-3.5253,-3.5231,-3.5222,-3.5218,-3.5202,-3.5195,-3.52,-3.5204,-3.5207,-3.5244,-3.5239,-3.5263,-3.5272,-3.528,-3.5284,-3.5302,-3.5313,-3.5202,-3.5202,-3.5202,0,0,-3.5306,-3.5291,-3.5298,-3.5294,-3.5285,-3.5295,-3.5248,-3.5261,-3.5268,-3.522,-3.5239,-3.5228,-3.5218,-3.5247,-3.5259,-3.524,-3.5314,-3.5286,-3.5292,-3.5292,-3.5308,-3.5319,-3.5328,-3.5205,-3.5204,-3.5204,0,0,-3.5375,-3.5365,-3.5387,-3.538,-3.5367,-3.5348,-3.5354,-3.5334,-3.5325,-3.5344,-3.5308,-3.5317,-3.5327,-3.5321,-3.5319,-3.5388,-3.536,-3.5391,-3.5436,-3.5454,-3.5463,-3.5471,-3.5494,-3.5503,-3.5396,-3.5396,-3.5396,0,-3.542,-3.5433,-3.5402,-3.5417,-3.5416,-3.5374,-3.5397,-3.5391,-3.5381,-3.5382,-3.536,-3.5372,-3.5362,-3.5389,-3.5406,-3.5407,-3.5412,-3.5391,-3.5464,-3.5472,-3.5478,-3.55,-3.5509,-3.5399,-3.5399,-3.5399,-3.5398,0,-3.5488,-3.5498,-3.5518,-3.5509,-3.5511,-3.553,-3.5502,-3.5508,-3.5487,-3.5471,-3.5492,-3.5479,-3.5478,-3.5484,-3.5464,-3.5509,-3.5497,-3.5471,-3.5432,-3.5493,-3.5513,-3.5521,-3.5405,-3.5403,-3.5402,-3.5401,0,0,-3.5592,-3.5567,-3.5575,-3.557,-3.5555,-3.5562,-3.558,-3.558,-3.5585,-3.5581,-3.5594,-3.5605,-3.5581,-3.5579,-3.5558,-3.5574,-3.5629,-3.5546,-3.5545,-3.556,-3.5677,-3.5694,-3.5705,-3.5611,-3.5613,-3.5614,-3.5677,0,-3.5655,-3.5683,-3.5656,-3.5689,-3.5698,-3.566,-3.5675,-3.5668,-3.5654,-3.566,-3.5646,-3.5653,-3.5621,-3.562,-3.5635,-3.5619,-3.5651,-3.5614,-3.5623,-3.5623,-3.5624,-3.5715,-3.5734,-3.5794,-3.5685,-3.5686,-3.5687,0,-3.5732,-3.573,-3.5764,-3.5747,-3.575,-3.5764,-3.5762,-3.5769,-3.576,-3.5749,-3.5748,-3.5723,-3.574,-3.5704,-3.5727,-3.5702,-3.5705,-3.5698,-3.57,-3.5697,-3.5657,-3.5713,-3.5812,-3.582,-3.5699,-3.5698,-3.5697,0,-3.5802,-3.5809,-3.583,-3.5827,-3.5809,-3.5819,-3.5812,-3.5802,-3.5804,-3.5803,-3.5804,-3.5805,-3.5806,-3.5808,-3.5784,-3.576,-3.581,-3.5772,-3.58,-3.5801,-3.5809,-3.5809,-3.5908,-3.5816,-3.5816,-3.5815,-3.5815,0,-3.5873,-3.5895,-3.5861,-3.5873,-3.5897,-3.5868,-3.5892,-3.5881,-3.5873,-3.5883,-3.5852,-3.5862,-3.5831,-3.5839,-3.5821,-3.5842,-3.5843,-3.5834,-3.5828,-3.5835,-3.5836,-3.5834,-3.5829,-3.5818,-3.5817,-3.5817,-3.5816,0,-3.5954,-3.5932,-3.5952,-3.5934,-3.593,-3.5948,-3.5932,-3.5943,-3.5928,-3.5942,-3.5943,-3.592,-3.5927,-3.5905,-3.5909,-3.5896,-3.5927,-3.5916,-3.5929,-3.5925,-3.5953,-3.595,-3.6053,-3.6064,-3.5967,-3.5968,-3.5969,0,-3.6,-3.6016,-3.5999,-3.6003,-3.5998,-3.6006,-3.6007,-3.5981,-3.5984,-3.5976,-3.5989,-3.5994,-3.5995,-3.6009,-3.5993,-3.5996,-3.5983,-3.6019,-3.5983,-3.599,-3.5981,-3.598,-3.5981,-3.6026,-3.6027,-3.6028,-3.6029,0,-3.6083,-3.6072,-3.6075,-3.6076,-3.6079,-3.6078,-3.6075,-3.6081,-3.6052,-3.6057,-3.6064,-3.6066,-3.6071,-3.6075,-3.6075,-3.6069,-3.6044,-3.6041,-3.6047,-3.6053,-3.6059,-3.6054,-3.5947,-3.6038,-3.6037,-3.6036,-3.6036,-3.6035,-3.6146,-3.6158,-3.6148,-3.6154,-3.6149,-3.6147,-3.6156,-3.6143,-3.6149,-3.6149,-3.6134,-3.6144,-3.6137,-3.6134,-3.613,-3.6138,-3.6121,-3.6131,-3.6133,-3.6135,-3.6139,-3.606,-3.6138,-3.6138,-3.6138,-3.6137,-3.6137,0,-3.6226,-3.6218,-3.6223,-3.622,-3.6225,-3.6202,-3.6198,-3.6203,-3.6212,-3.6208,-3.6211,-3.6219,-3.6224,-3.6209,-3.6212,-3.6222,-3.621,-3.6223,-3.6221,-3.6219,-3.6154,-3.6148,-3.6232,-3.6232,-3.6232,-3.6232,-3.6232,-3.6232,-3.6267,-3.6286,-3.6275,-3.6291,-3.6284,-3.6293,-3.6292,-3.6291,-3.6287,-3.6297,-3.6301,-3.6292,-3.6283,-3.6286,-3.629,-3.6285,-3.6287,-3.6303,-3.6295,-3.6233,-3.6224,-3.6215,-3.6208,-3.6304,-3.6304,-3.6359,-3.6359,-3.6359]},{"header":{"parameterUnit":"m.s-1","parameterCategory":1,"la1":30.2991,"la2":30.254,"lo1":-89.0895,"lo2":-89.0444,"dy":0.0017,"dx":0.0017,"nx":28,"ny":28,"refTime":"2024-04-16T03:00:00:Z","depth":0,"parameterNumber":3,"parameterNumberName":"V-component_of_WINDS"},"data":[0,0,0,0,0,0,0,0,0,0,0,0,0,0,0,0,0,0,0,0,0,0,0,0,0,0,0,0,0,0,0,0,0,0,0,0,0,0,0,0,0,0,0,0,0,0,0,0,0,0,0,0,0,0,0,0,0,0,2.1614,2.1614,0,2.1639,2.164,2.164,2.1658,2.1658,2.1658,2.1658,2.1681,2.1682,2.1682,0,0,0,0,0,0,0,0,0,0,0,0,0,2.1579,2.1579,2.1614,2.1614,2.1614,2.1639,2.164,2.164,2.1658,2.1658,2.1658,2.1658,2.1681,2.1682,2.1682,0,0,0,0,0,0,0,0,0,0,0,0,0,2.1598,2.158,2.1613,2.1626,2.1628,2.1639,2.164,2.164,2.1658,2.1658,2.1658,2.1658,2.1681,2.1681,2.1682,2.1682,0,0,2.1684,2.1685,0,0,0,0,0,0,0,0,2.1597,2.1599,2.1624,2.1625,2.1627,2.1646,2.1636,2.1654,2.1658,2.1646,2.1658,2.1658,2.1669,2.1671,2.1675,2.1683,2.1684,2.1684,2.1685,2.1685,2.1685,0,0,0,0,0,0,0,2.1596,2.1598,2.1624,2.1624,2.1626,2.163,2.1633,2.1639,2.1656,2.1647,2.1649,2.1652,2.167,2.1674,2.1676,2.1685,2.1684,2.1685,2.1686,2.1686,2.1697,2.1697,0,0,0,0,0,0,2.1593,2.1597,2.1623,2.1624,2.1612,2.1631,2.1634,2.1639,2.1656,2.1659,2.1651,2.1652,2.1673,2.1675,2.1676,2.1679,2.1685,2.1686,2.1686,2.1697,2.1697,2.1697,0,0,0,0,0,0,2.1592,2.1595,2.1622,2.1611,2.1615,2.1631,2.1637,2.164,2.1644,2.1659,2.1662,2.1653,2.1673,2.1675,2.1682,2.168,2.1686,2.1687,2.1698,2.1697,2.1697,2.1684,0,0,0,0,0,0,2.1591,2.1594,2.1594,2.1611,2.1616,2.1627,2.1637,2.164,2.1646,2.1647,2.1661,2.1664,2.1673,2.168,2.1682,2.1681,2.1687,2.1698,2.1698,2.1697,2.1684,2.1683,2.1682,0,0,0,0,0,2.1589,2.1588,2.1594,2.1597,2.1616,2.1627,2.1629,2.1641,2.1646,2.1646,2.1656,2.1663,2.168,2.1681,2.1683,2.1682,2.1698,2.1698,2.1697,2.1685,2.1683,2.1682,0,0,0,0,0,0,2.1569,2.1591,2.1597,2.1602,2.1613,2.163,2.163,2.1639,2.1647,2.1648,2.1662,2.1665,2.167,2.1677,2.1677,2.1685,2.169,2.169,2.168,2.1679,2.1678,2.1676,2.1688,0,0,0,0,0,2.1565,2.1573,2.1591,2.1593,2.1598,2.1613,2.1618,2.1627,2.1638,2.1642,2.1653,2.1662,2.167,2.1675,2.1683,2.1686,2.169,2.1687,2.1686,2.1685,2.1684,2.1689,2.1688,2.1696,2.1696,2.1696,0,0,2.1557,2.157,2.1573,2.1589,2.1599,2.1606,2.1617,2.1623,2.1629,2.1643,2.165,2.1658,2.167,2.1676,2.1678,2.1681,2.1683,2.1684,2.1683,2.1684,2.1688,2.1688,2.1687,2.1696,2.1696,2.1696,0,0,2.1546,2.1556,2.156,2.157,2.1585,2.1596,2.1597,2.1613,2.162,2.1628,2.1639,2.1646,2.1658,2.1667,2.1673,2.167,2.1677,2.1672,2.1665,2.1669,2.1669,2.1668,2.1668,2.1667,2.1672,2.1672,2.1672,0,2.1534,2.1546,2.1561,2.1568,2.1575,2.159,2.1595,2.1603,2.1619,2.1624,2.1628,2.1646,2.1655,2.1664,2.1663,2.1667,2.1669,2.167,2.1668,2.1667,2.1667,2.1667,2.1667,2.1671,2.1671,2.1671,2.1671,0,2.153,2.1539,2.154,2.1558,2.1565,2.157,2.1587,2.1593,2.1602,2.1612,2.1621,2.1633,2.1645,2.1647,2.1655,2.1658,2.166,2.1665,2.1671,2.1665,2.1666,2.1665,2.167,2.167,2.167,2.167,0,0,2.1505,2.1533,2.1533,2.1543,2.1562,2.1568,2.1575,2.1588,2.1594,2.1605,2.1612,2.1624,2.163,2.1637,2.1647,2.165,2.1648,2.1656,2.1656,2.1654,2.1653,2.1649,2.1649,2.1654,2.1654,2.1654,2.1653,0,2.1497,2.1511,2.1527,2.1535,2.1544,2.1561,2.1567,2.1579,2.159,2.1599,2.161,2.1619,2.1627,2.1631,2.1636,2.1647,2.1648,2.1648,2.166,2.166,2.1656,2.1649,2.1643,2.1642,2.1653,2.1653,2.1653,0,2.1489,2.1502,2.1512,2.1533,2.1538,2.1543,2.1558,2.1566,2.1581,2.1589,2.1598,2.1609,2.1618,2.1624,2.1636,2.1636,2.1642,2.1649,2.1649,2.165,2.1656,2.165,2.1641,2.1641,2.1653,2.1653,2.1653,0,2.1471,2.1491,2.15,2.1507,2.1531,2.1535,2.1545,2.1561,2.1569,2.1582,2.1587,2.16,2.1607,2.1617,2.1631,2.1634,2.1643,2.1649,2.165,2.1649,2.165,2.165,2.1642,2.1654,2.1654,2.1654,2.1654,0,2.146,2.1466,2.1493,2.1498,2.1506,2.1524,2.1531,2.1542,2.1557,2.1565,2.158,2.1587,2.1606,2.1616,2.1627,2.1636,2.1639,2.1646,2.1649,2.1644,2.1644,2.1648,2.1649,2.1654,2.1654,2.1654,2.1654,0,2.1441,2.1458,2.147,2.1493,2.1499,2.1504,2.1524,2.153,2.1543,2.1554,2.1557,2.1577,2.1589,2.1605,2.1622,2.163,2.1638,2.1643,2.1634,2.1635,2.1635,2.1635,2.1631,2.1631,2.1642,2.1642,2.1642,0,2.1433,2.1438,2.1463,2.147,2.1481,2.1492,2.1501,2.152,2.1529,2.1548,2.1552,2.1567,2.1579,2.1599,2.1614,2.1628,2.1633,2.163,2.1634,2.1631,2.1633,2.1633,2.1634,2.1629,2.1628,2.1628,2.1628,0,2.1417,2.1427,2.144,2.1456,2.1467,2.1481,2.1495,2.15,2.1522,2.1531,2.1545,2.1555,2.1574,2.1589,2.1605,2.1615,2.1625,2.1627,2.1628,2.1624,2.1619,2.1622,2.1631,2.1627,2.1627,2.1627,2.1627,2.1627,2.1404,2.141,2.1429,2.1444,2.1457,2.1471,2.1479,2.1494,2.1507,2.1525,2.1535,2.1549,2.1567,2.159,2.16,2.1611,2.1615,2.1616,2.1616,2.1616,2.1616,2.1617,2.1614,2.1614,2.1614,2.1614,2.1615,0,2.139,2.1404,2.1417,2.1438,2.145,2.1461,2.1478,2.1487,2.15,2.1515,2.1528,2.1546,2.156,2.1578,2.1594,2.16,2.1605,2.1604,2.1603,2.1606,2.1611,2.1609,2.1599,2.1599,2.1599,2.1599,2.1599,2.1599,2.1384,2.1396,2.1408,2.1428,2.1441,2.1457,2.1466,2.1479,2.1492,2.1511,2.1524,2.1537,2.1554,2.1572,2.1586,2.1591,2.1596,2.1593,2.1599,2.1604,2.1605,2.1606,2.1604,2.1594,2.1594,2.1593,2.1593,2.1593]}]]